Date String (YYYY-MM-DD hh:mm:ss) UTC,Instrument flags,Ambient pressure (hPa),Sample flow (lpm),Bypass flow (lpm),Sample temperature (°C),Ambient temperature (°C),ASC tube jacket temperature (°C),LED temperature (°C),Box temperature (°C),Sample RH (%),Span deviation,Mass concentration (μg/m³),Mass concentration (μg/m³),Mass concentration (μg/m³)
DateTimeUTC,F1_M11,P_M11,Q1_M11,Q2_M11,T1_M11,T2_M11,T3_M11,T4_M11,T5_M11,U1_M11,ZSPAN_M11,X0_M11,X2_M11,X1_M11
2021-10-30 03:00:00,,0824.7,4.99,0.00,29.8,28.9,00.0,38.9,31.5,08.3,0000.0,0001.21,0000.37,0000.31
2021-10-30 03:01:00,,0824.7,5.00,0.00,29.7,28.8,00.0,38.9,31.5,08.3,0000.0,0001.21,0000.36,0000.31
2021-10-30 03:02:00,,0824.7,5.01,0.00,29.7,28.8,00.0,38.9,31.5,08.3,0000.0,0001.58,0000.38,0000.32
2021-10-30 03:03:00,,0824.7,4.99,0.00,29.7,28.8,00.0,38.9,31.4,08.3,0000.0,0001.62,0000.40,0000.33
2021-10-30 03:04:00,,0824.6,5.00,0.00,29.7,28.8,00.0,38.9,31.4,08.3,0000.0,0001.66,0000.42,0000.34
2021-10-30 03:05:00,,0824.7,5.00,0.00,29.7,28.8,00.0,38.9,31.4,08.3,0000.0,0001.71,0000.45,0000.35
2021-10-30 03:06:00,,0824.7,5.00,0.00,29.7,28.8,00.0,38.9,31.4,08.3,0000.0,0001.75,0000.48,0000.35
2021-10-30 03:07:00,,0824.7,5.01,0.00,29.7,28.8,00.0,38.9,31.4,08.3,0000.0,0001.76,0000.48,0000.36
2021-10-30 03:08:00,,0824.7,5.01,0.00,29.7,28.8,00.0,38.8,31.4,08.4,0000.0,0001.80,0000.50,0000.36
2021-10-30 03:09:00,,0824.7,5.00,0.00,29.6,28.8,00.0,38.8,31.3,08.4,0000.0,0001.30,0000.49,0000.36
2021-10-30 03:10:00,,0824.6,4.99,0.00,29.6,28.7,00.0,38.8,31.3,08.3,0000.0,0001.09,0000.46,0000.36
2021-10-30 03:11:00,,0824.7,5.00,0.00,29.6,28.7,00.0,38.8,31.3,08.4,0000.0,0001.06,0000.46,0000.35
2021-10-30 03:12:00,,0824.7,5.01,0.00,29.6,28.7,00.0,38.8,31.3,08.4,0000.0,0001.08,0000.47,0000.36
2021-10-30 03:13:00,,0824.7,5.01,0.00,29.6,28.7,00.0,38.8,31.3,08.5,0000.0,0000.68,0000.46,0000.36
2021-10-30 03:14:00,,0824.7,5.00,0.00,29.6,28.7,00.0,38.8,31.3,08.5,0000.0,0000.68,0000.44,0000.35
2021-10-30 03:15:00,,0824.8,4.99,0.00,29.6,28.7,00.0,38.8,31.3,08.5,0000.0,0000.65,0000.44,0000.35
2021-10-30 03:16:00,,0824.7,5.00,0.00,29.5,28.7,00.0,38.8,31.2,08.5,0000.0,0000.61,0000.42,0000.35
2021-10-30 03:17:00,,0824.7,5.00,0.00,29.5,28.6,00.0,38.7,31.2,08.5,0000.0,0000.88,0000.39,0000.35
2021-10-30 03:18:00,,0824.7,5.00,0.00,29.5,28.6,00.0,38.7,31.2,08.5,0000.0,0000.89,0000.39,0000.35
2021-10-30 03:19:00,,0824.7,5.01,0.00,29.5,28.6,00.0,38.7,31.2,08.5,0000.0,0000.85,0000.38,0000.35
2021-10-30 03:20:00,,0824.7,5.01,0.00,29.5,28.6,00.0,38.7,31.2,08.5,0000.0,0000.85,0000.38,0000.35
2021-10-30 03:21:00,,0824.7,5.00,0.00,29.5,28.6,00.0,38.7,31.2,08.5,0000.0,0000.88,0000.39,0000.35
2021-10-30 03:22:00,,0824.6,5.01,0.00,29.5,28.6,00.0,38.7,31.2,08.5,0000.0,0000.89,0000.41,0000.36
2021-10-30 03:23:00,,0824.7,5.01,0.00,29.5,28.6,00.0,38.7,31.2,08.6,0000.0,0000.87,0000.40,0000.36
2021-10-30 03:24:00,,0824.7,5.00,0.00,29.5,28.6,00.0,38.7,31.2,08.6,0000.0,0000.85,0000.39,0000.35
2021-10-30 03:25:00,,0824.7,4.99,0.00,29.5,28.6,00.0,38.6,31.2,08.6,0000.0,0000.84,0000.39,0000.36
2021-10-30 03:26:00,,0824.8,5.00,0.00,29.4,28.6,00.0,38.6,31.2,08.6,0000.0,0000.91,0000.42,0000.36
2021-10-30 03:27:00,,0824.7,5.01,0.00,29.4,28.6,00.0,38.6,31.1,08.7,0000.0,0001.08,0000.44,0000.36
2021-10-30 03:28:00,,0824.6,4.99,0.00,29.4,28.6,00.0,38.6,31.1,08.7,0000.0,0001.41,0000.46,0000.37
2021-10-30 03:29:00,,0824.7,5.00,0.00,29.4,28.6,00.0,38.6,31.1,08.7,0000.0,0001.41,0000.46,0000.37
2021-10-30 03:30:00,,0824.7,5.00,0.00,29.4,28.6,00.0,38.6,31.1,08.8,0000.0,0001.46,0000.49,0000.37
2021-10-30 03:31:00,,0824.7,5.01,0.00,29.4,28.6,00.0,38.6,31.1,08.8,0000.0,0001.50,0000.50,0000.38
2021-10-30 03:32:00,,0824.6,5.00,0.00,29.4,28.6,00.0,38.6,31.1,08.8,0000.0,0001.50,0000.50,0000.37
2021-10-30 03:33:00,,0824.6,5.00,0.00,29.4,28.6,00.0,38.6,31.1,08.8,0000.0,0001.56,0000.48,0000.37
2021-10-30 03:34:00,,0824.6,5.00,0.00,29.4,28.6,00.0,38.6,31.1,08.9,0000.0,0001.76,0000.50,0000.37
2021-10-30 03:35:00,,0824.6,4.99,0.00,29.4,28.6,00.0,38.5,31.1,08.9,0000.0,0001.77,0000.51,0000.38
2021-10-30 03:36:00,,0824.7,5.00,0.00,29.4,28.6,00.0,38.5,31.1,08.9,0000.0,0001.77,0000.51,0000.38
2021-10-30 03:37:00,,0824.6,5.00,0.00,29.4,28.6,00.0,38.5,31.1,08.9,0000.0,0001.75,0000.50,0000.38
2021-10-30 03:38:00,,0824.6,5.00,0.00,29.4,28.6,00.0,38.5,31.1,08.9,0000.0,0002.38,0000.50,0000.38
2021-10-30 03:39:00,,0824.6,5.01,0.00,29.4,28.6,00.0,38.5,31.1,08.9,0000.0,0002.08,0000.50,0000.38
2021-10-30 03:40:00,,0824.5,5.00,0.00,29.4,28.6,00.0,38.5,31.1,09.0,0000.0,0002.08,0000.50,0000.38
2021-10-30 03:41:00,,0824.6,5.00,0.00,29.4,28.6,00.0,38.5,31.1,09.0,0000.0,0002.10,0000.50,0000.38
2021-10-30 03:42:00,,0824.7,5.01,0.00,29.3,28.5,00.0,38.5,31.1,09.0,0000.0,0002.10,0000.50,0000.38
2021-10-30 03:43:00,,0824.6,4.99,0.00,29.3,28.5,00.0,38.5,31.1,09.0,0000.0,0002.09,0000.50,0000.38
2021-10-30 03:44:00,,0824.6,4.99,0.00,29.3,28.5,00.0,38.5,31.0,09.0,0000.0,0002.05,0000.50,0000.38
2021-10-30 03:45:00,,0824.6,5.01,0.00,29.3,28.5,00.0,38.5,31.0,09.0,0000.0,0001.84,0000.49,0000.38
2021-10-30 03:46:00,,0824.7,4.99,0.00,29.3,28.5,00.0,38.5,31.0,09.0,0000.0,0001.87,0000.50,0000.38
2021-10-30 03:47:00,,0824.7,5.00,0.00,29.3,28.5,00.0,38.5,31.0,09.1,0000.0,0001.95,0000.53,0000.38
2021-10-30 03:48:00,,0824.7,5.01,0.00,29.3,28.5,00.0,38.4,31.0,09.2,0000.0,0002.75,0000.53,0000.38
2021-10-30 03:49:00,,0824.6,4.99,0.00,29.3,28.5,00.0,38.4,31.0,09.2,0000.0,0003.27,0000.53,0000.39
2021-10-30 03:50:00,,0824.6,5.00,0.00,29.3,28.4,00.0,38.4,31.0,09.2,0000.0,0002.46,0000.52,0000.39
2021-10-30 03:51:00,,0824.6,5.00,0.00,29.2,28.4,00.0,38.4,31.0,09.2,0000.0,0002.46,0000.51,0000.39
2021-10-30 03:52:00,,0824.6,4.99,0.00,29.2,28.4,00.0,38.4,31.0,09.2,0000.0,0002.43,0000.52,0000.40
2021-10-30 03:53:00,,0824.6,5.01,0.00,29.2,28.4,00.0,38.4,30.9,09.3,0000.0,0002.39,0000.51,0000.41
2021-10-30 03:54:00,,0824.6,5.00,0.00,29.2,28.4,00.0,38.4,31.0,09.3,0000.0,0002.42,0000.51,0000.41
2021-10-30 03:55:00,,0824.6,5.00,0.00,29.2,28.4,00.0,38.4,30.9,09.4,0000.0,0002.51,0000.53,0000.41
2021-10-30 03:56:00,,0824.6,4.99,0.00,29.2,28.4,00.0,38.4,30.9,09.4,0000.0,0002.56,0000.54,0000.41
2021-10-30 03:57:00,,0824.7,5.00,0.00,29.2,28.4,00.0,38.4,30.9,09.4,0000.0,0002.62,0000.54,0000.42
2021-10-30 03:58:00,,0824.6,5.00,0.00,29.2,28.4,00.0,38.4,30.9,09.4,0000.0,0002.58,0000.53,0000.43
2021-10-30 03:59:00,,0824.7,5.00,0.00,29.2,28.4,00.0,38.4,30.9,09.4,0000.0,0002.07,0000.52,0000.44
